Showing default

BD-17, 40549

Orbit data source: Space-Track

BD-17, 40549 is a payload satellite owned by CNSA (CN) that was launched on Mon, 30 Mar 2015 UTC via a CHANG ZHENG 3C/YZ-1 launch vehicle from the Xichang Space Center, China (XSC). Payload-class satellites include a variety of spacecraft equipped with specific instruments for various scientific and technological missions. These include communications satellites like Starlink; space stations such as the ISS; scientific satellites like the Hubble; Earth observation satellites from companies like Planet Labs, Umbra, and HawkEye 360; GPS; miniature CubeSats for education and research; and military/defense satellites.

Not visible in the next 10 days
Identifier
40549, 2015-019A
Orbit
Active
Last TLE update
22 hours ago
Origin
Manufacturer
SECM
Mission
Awaiting activation Defense Navigation
Bus & Motor
BD-3I, AKM?
Mass
~1,150 kg wet, ~850 kg dry
Launch date (UTC)
2015-03-30 (10 years ago)
Launch vehicle
CHANG ZHENG 3C/YZ-1
Launch site
Xichang Space Center, China (XSC)
Object type
Payload
Rocket body
Debris
Shape & HBR
Box + 2 Pan, 18 m
Radar Cross Section
13.998 m², Large (>1 m²)

Expand to show TLE details & history

TLE from 22 hours ago
0 BD-17
1 40549U 15019A   25128.93914176 -.00000179  00000-0  00000-0 0  9994
2 40549  49.9620 300.3157 0038425 191.0106 167.7909  1.00287134 37019
Epoch: 2025-05-08T22:32Z
Definitive object data (Epoch: 2025-05-08T22:32:21.848Z)
Latitude
-0.79647°
Longitude
94.53178°
Altitude
35,940.274 km
Speed
3.063 km/s
True Right ascension
19h 58m 30s
True Declination
0° 47' 44"
Sunlit
Object was in daylight at TLE epoch
Visualization TLE readout
Latitude
-23.81146°
Longitude
73.42183°
Altitude
35,906.881 km
Speed
3.066 km/s
Apparent Right ascension
18h 21m 10s
Apparent Declination
-26° 09' 24"
Sunlit
Object is in daylight
Visualization observer readout
Local Sidereal Time
04:35:46
Azimuth
294.074° NW
Elevation
-64.128°
Doppler factor
1
Orbital elements
Apogee altitude
35,944.447 km
Perigee altitude
35,620.443 km
Semi-major axis
42,160.582 km
Eccentricity
0.0038425
Inclination
49.962°
RAAN
300.3157°
Arg. of periapsis
191.0106°
True anomaly
167.88358°
Mean anomaly
167.7909°
Eccentric anomaly
167.83729°
Mean motion
0.25072 °/min
BSTAR
Unknown
Orbital period
1435.88 mins
Loading maneuver chart data...
Loading SW <> Apogee altitude chart data...
Loading historical data...
Loading historical data...
Loading historical data...
Loading historical data...
Loading historical data...
Loading historical data...
Loading historical data...
Other satellites on launch #19 in the year 2015 (2015-03-30 UTC)

BD-17 Visibility forecast

Observer location: undefined°, undefined°

BD-17 is not visible in the next 10 days
Span
Click to sort rows by Start time (UTC) header in descending order
Start Az.
Max El. time (UTC)
Max El. Az.
Max El.
End time (UTC)
End Az.
|